Hourly Data Report for March 29, 2012

All times are specified in Local Standard Time (LST). Add 1 hour to adjust for Daylight Saving Time where and when it is observed.

MIRAMICHI RCS
NEW BRUNSWICK

47°00'34.000" N
65°27'54.000" W
33.00 m
8100989
71744
ACQ

Download Data

Hourly Data (March 2012)
Hourly Data Report for March 29, 2012
TIME Temp Definition
°C
Dew Point Temp Definition
°C
Rel Hum Definition
%
Wind Dir Definition
10's deg

Wind Spd Definition
km/h
Visibility Definition
km
Stn Press Definition
kPa
Hmdx Definition


Wind Chill Definition


Weather Definition


00:00 -3.3 -6.1 81 6 7   100.49   -6 LegendNANA
01:00 -3.5 -6.2 82 8 2   100.45   -4 LegendNANA
02:00 -3.9 -6.2 84 33 4   100.39   -6 LegendNANA
03:00 -4.0 -5.9 87 36 6   100.32   -7 LegendNANA
04:00 -3.6 -5.7 85 32 4   100.29   -5 LegendNANA
05:00 -3.4 -5.9 83 33 2   100.29   -4 LegendNANA
06:00 -3.4 -6.2 81 31 4   100.31   -5 LegendNANA
07:00 -3.3 -6.4 79 30 2   100.36   -4 LegendNANA
08:00 -1.9 -6.5 71 32 6   100.37   -4 LegendNANA
09:00 0.0 -10.8 44 2 7   100.33   -2 LegendNANA
10:00 1.4 -11.1 39 5 9   100.28     LegendNANA
11:00 3.0 -13.2 29 1 15   100.23     LegendNANA
12:00 3.8 -14.5 25 35 11   100.16     LegendNANA
13:00 4.6 -14.3 24 35 11   100.11     LegendNANA
14:00 5.7 -14.2 22 34 11   100.01     LegendNANA
15:00 6.7 -13.9 21 34 7   99.96     LegendNANA
16:00 6.5 -10.9 28 6 13   99.90     LegendNANA
17:00 6.0 -11.5 27 6 11   99.88     LegendNANA
18:00 3.9 -7.8 42 12 17   99.92     LegendNANA
19:00 1.0 -7.7 52 11 9   100.00     LegendNANA
20:00 -0.8 -7.4 61   0   100.07     LegendNANA
21:00 -1.1 -6.8 65 15 2   100.12   -2 LegendNANA
22:00 -1.3 -6.8 66 24 4   100.10   -3 LegendNANA
23:00 -1.2 -6.6 67 27 4   100.08   -3 LegendNANA

Notes on Data Quality.

Legend

  • E = Estimated
  • M = Missing
  • NA = Not Available
Date modified: